Memphis, TN

6:13 PM CDT on September 25, 2017 (GMT -0500)
Memphis International

Weather History for KMEM - July, 2013

Change the Weather History Date:

Tuesday, July 30, 2013

  Actual Average Record
Temperature  
Mean Temperature 81 °F 83 °F  
Max Temperature 86 °F 92 °F 104 °F (1986)
Min Temperature 76 °F 74 °F 61 °F (1965)
Degree Days  
Heating Degree Days 0 0  
Month to date heating degree days 0 0  
Since 1 June heating degree days 0 0  
Since 1 July heating degree days 0 0  
Cooling Degree Days 16 18  
Month to date cooling degree days 467 536  
Year to date cooling degree days 1202 1295  
Since 1 June cooling degree days 917 974  
Growing Degree Days 30 (Base 50)    
Moisture  
Dew Point 68 °F    
Average Humidity 65    
Maximum Humidity 74    
Minimum Humidity 55    
Precipitation  
Precipitation T in 0.13 in 2.02 in (2009)
Month to date precipitation 3.43 4.45  
Year to date precipitation 43.48 32.36  
Snow  
Snow 0.00 in 0.00 in - ()
Month to date snowfall 0.0 0.0  
Since 1 June snowfall 0.0 0.0  
Since 1 July snowfall 0.0 0.0  
Snow Depth 0.00 in    
Sea Level Pressure  
Sea Level Pressure 30.07 in    
Wind  
Wind Speed 9 mph (South)    
Max Wind Speed 17 mph    
Max Gust Speed 21 mph    
Visibility 10 miles    
Events Rain    
T = Trace of Precipitation, MM = Missing Value Source: NWS Daily Summary

Daily Weather History Graph

Daily Weather History Graph

Search for Another Location

Airport or City:

Trip Planner

Search our weather history database for the weather conditions in past years. The results will help you decide how hot, cold, wet, or windy it might be!

Date:

Astronomy

Jul. 30, 2013 Rise Set
Actual Time 6:07 AM CDT 8:04 PM CDT
Civil Twilight 5:39 AM CDT 8:32 PM CDT
Nautical Twilight 5:06 AM CDT 9:05 PM CDT
Astronomical Twilight 4:29 AM CDT 9:42 PM CDT
Moon 12:23 AM CDT (7/30) 2:25 PM CDT (7/30)
Length of Visible Light 14h 52m
Length of Day
13h 56m
Last Quarter, 41% of the Moon is Illuminated
Jul 30
Last Quarter
Aug 6
New
Aug 14
First Quarter
Aug 20
Full
Aug 28
Last Quarter

Hourly Weather History & Observations

Time (CDT) Temp. Heat Index Dew Point Humidity Pressure Visibility Wind Dir Wind Speed Gust Speed Precip Events Conditions
12:54 AM 79.0 °F - 64.9 °F 62% 30.10 in 10.0 mi SE 6.9 mph - N/A   Mostly Cloudy
1:54 AM 78.1 °F - 64.9 °F 64% 30.10 in 10.0 mi SSE 10.4 mph - N/A   Mostly Cloudy
2:54 AM 77.0 °F - 64.9 °F 66% 30.09 in 10.0 mi SSE 8.1 mph - N/A   Mostly Cloudy
3:54 AM 77.0 °F - 66.0 °F 69% 30.09 in 10.0 mi SSE 8.1 mph - N/A   Overcast
4:54 AM 75.9 °F - 66.0 °F 71% 30.09 in 10.0 mi SSE 9.2 mph - N/A   Overcast
5:54 AM 75.9 °F - 66.0 °F 71% 30.11 in 10.0 mi South 9.2 mph - N/A   Overcast
6:54 AM 75.9 °F - 66.0 °F 71% 30.11 in 10.0 mi South 9.2 mph - N/A   Overcast
7:54 AM 78.1 °F - 66.9 °F 68% 30.11 in 10.0 mi South 12.7 mph - N/A   Overcast
8:54 AM 78.1 °F - 68.0 °F 71% 30.12 in 10.0 mi South 12.7 mph - N/A   Mostly Cloudy
9:54 AM 79.0 °F - 70.0 °F 74% 30.12 in 10.0 mi South 11.5 mph - N/A   Overcast
10:54 AM 82.0 °F 86.3 °F 71.1 °F 69% 30.11 in 10.0 mi SSW 9.2 mph - N/A   Overcast
11:54 AM 84.0 °F 88.4 °F 70.0 °F 63% 30.11 in 10.0 mi SSW 11.5 mph 19.6 mph N/A   Overcast
12:54 PM 82.9 °F 87.5 °F 71.1 °F 67% 30.09 in 10.0 mi SSW 9.2 mph - 0.00 in Rain Light Rain
1:54 PM 82.9 °F 85.8 °F 68.0 °F 60% 30.08 in 10.0 mi SSW 8.1 mph - 0.00 in   Overcast
2:54 PM 82.9 °F 85.0 °F 66.0 °F 56% 30.06 in 10.0 mi SSW 6.9 mph - N/A   Overcast
3:54 PM 84.9 °F 87.6 °F 66.9 °F 55% 30.05 in 10.0 mi South 11.5 mph - N/A   Overcast
4:54 PM 84.9 °F 88.2 °F 68.0 °F 57% 30.04 in 10.0 mi South 10.4 mph - N/A   Overcast
5:54 PM 84.0 °F 88.4 °F 70.0 °F 63% 30.03 in 10.0 mi SSW 5.8 mph - N/A   Overcast
6:54 PM 82.9 °F 87.0 °F 70.0 °F 65% 30.02 in 10.0 mi SSW 8.1 mph - N/A   Overcast
7:54 PM 82.0 °F 85.5 °F 69.1 °F 65% 30.01 in 10.0 mi SSW 5.8 mph - N/A   Mostly Cloudy
8:54 PM 80.1 °F 82.9 °F 69.1 °F 69% 30.01 in 10.0 mi South 5.8 mph - N/A   Scattered Clouds
9:54 PM 78.1 °F - 69.1 °F 74% 30.03 in 10.0 mi South 5.8 mph - N/A   Scattered Clouds
10:54 PM 80.1 °F 82.9 °F 69.1 °F 69% 30.03 in 10.0 mi SSW 5.8 mph - N/A   Mostly Cloudy
11:54 PM 79.0 °F - 70.0 °F 74% 30.04 in 10.0 mi SSW 4.6 mph - N/A   Overcast